{"data":{"norad_id":69026,"intl_designator":"2026-101B","name":"STARLINK-37637","alt_names":[],"object_type":"PAYLOAD","status":"ACTIVE","operator":null,"country":"US","launch_date":"2026-05-06","launch_site_code":"AFWTR","launch_vehicle":null,"mission":null,"orbit_class":"UNKNOWN","rcs_meters":null,"size_class":null,"mass_kg":null,"dimensions":null,"purposes":["comms"],"wikipedia_slug":null,"has_3d_model":false,"image_url":null,"decayed_at":null,"tle_current":{"epoch":"2026-05-24T12:24:03.595392Z","epoch_age_seconds":127245,"freshness":"FRESH","line1":"1 69026U 26101B   26144.51670828 -.00788289  00000+0 -63219-2 0  9993","line2":"2 69026  97.2845 359.2260 0001086  89.2250 270.9138 15.73159547  2917","mean_motion":15.73159547,"eccentricity":0.0001086,"inclination_deg":97.2845,"raan_deg":359.226,"arg_perigee_deg":89.225,"mean_anomaly_deg":270.9138,"bstar":-0.0063219,"rev_number":291,"period_min":91.535534507359,"perigee_km":349.14284749946,"apogee_km":350.60417138211,"semimajor_km":6728.0105094408,"source":"CELESTRAK","updated_at":"2026-05-25T13:38:22.079061Z"}}}